[[{"header":{"parameterUnit":"m.s-1","parameterCategory":1,"la1":30.2991,"la2":30.254,"lo1":-89.0895,"lo2":-89.0444,"dy":0.0017,"dx":0.0017,"nx":28,"ny":28,"refTime":"2026-02-05T03:00:00:Z","depth":0,"parameterNumber":2,"parameterNumberName":"U-component_of_WINDS"},"data":[0,0,0,0,0,0,0,0,0,0,0,0,0,0,0,0,0,0,0,0,0,0,0,0,0,0,0,0,0,0,0,0,0,0,0,0,0,0,0,0,0,0,0,0,0,0,0,0,0,0,0,0,0,0,0,0,0,0,1.089,1.0889,0,1.0882,1.0882,1.0881,1.0859,1.0859,1.0858,1.0858,1.0847,1.0847,1.0848,0,0,0,0,0,0,0,0,0,0,0,0,0,1.0885,1.0885,1.089,1.0889,1.0889,1.0882,1.0882,1.0881,1.0859,1.0859,1.0858,1.0858,1.0847,1.0847,1.0848,0,0,0,0,0,0,0,0,0,0,0,0,0,1.0883,1.0885,1.089,1.0877,1.0876,1.0882,1.0882,1.0881,1.0859,1.0859,1.0858,1.0857,1.0847,1.0847,1.0848,1.0863,0,0,1.0848,1.0848,0,0,0,0,0,0,0,0,1.0883,1.0883,1.0879,1.0878,1.0877,1.0871,1.0876,1.0875,1.086,1.0866,1.0858,1.0857,1.0855,1.0855,1.0855,1.0863,1.0862,1.0848,1.0849,1.0849,1.0849,0,0,0,0,0,0,0,1.0883,1.0883,1.0886,1.0879,1.0878,1.0872,1.0871,1.0876,1.0865,1.0865,1.0863,1.0863,1.0855,1.0855,1.0855,1.0862,1.0848,1.0849,1.0849,1.0849,1.0885,1.0885,0,0,0,0,0,0,1.0885,1.0883,1.0887,1.0886,1.0878,1.0873,1.0872,1.0873,1.0865,1.0863,1.0864,1.0862,1.0855,1.0854,1.0854,1.0873,1.0849,1.0849,1.0849,1.0884,1.0885,1.0886,0,0,0,0,0,0,1.0885,1.0886,1.0887,1.0884,1.0884,1.0874,1.0876,1.0874,1.0874,1.0863,1.0861,1.0866,1.0854,1.0854,1.0862,1.0872,1.0849,1.0849,1.0883,1.0884,1.0885,1.091,0,0,0,0,0,0,1.0885,1.0886,1.0892,1.0885,1.0884,1.0895,1.0876,1.0874,1.0874,1.0872,1.0865,1.0863,1.0854,1.0862,1.0862,1.0872,1.0849,1.0882,1.0883,1.0885,1.0908,1.0912,1.0915,0,0,0,0,0,1.0885,1.0898,1.0892,1.0893,1.0892,1.0896,1.0895,1.0885,1.0875,1.0881,1.0875,1.0863,1.0871,1.0863,1.0863,1.0873,1.0881,1.0883,1.0885,1.0907,1.0911,1.0915,0,0,0,0,0,0,1.0905,1.0897,1.089,1.0901,1.09,1.0892,1.0899,1.089,1.089,1.0888,1.0874,1.0873,1.0883,1.0879,1.0869,1.0889,1.0874,1.0876,1.0891,1.0895,1.0899,1.0899,1.085,0,0,0,0,0,1.0911,1.0916,1.0908,1.0919,1.0918,1.0909,1.091,1.0903,1.09,1.0899,1.0893,1.089,1.0892,1.0893,1.0895,1.0908,1.0906,1.0915,1.0919,1.0922,1.0923,1.0931,1.0935,1.0892,1.0892,1.0891,0,0,1.0923,1.0919,1.0922,1.0923,1.092,1.0925,1.0908,1.0913,1.0917,1.0899,1.0907,1.0903,1.0899,1.091,1.0915,1.0907,1.0935,1.0924,1.0926,1.0926,1.0933,1.0938,1.0941,1.0893,1.0893,1.0892,0,0,1.0947,1.0944,1.0954,1.0952,1.095,1.0944,1.0946,1.094,1.0937,1.0945,1.0932,1.0936,1.094,1.0938,1.0938,1.0964,1.0953,1.0965,1.0982,1.099,1.0993,1.0996,1.1006,1.101,1.0967,1.0967,1.0967,0,1.0961,1.0969,1.0959,1.0966,1.0967,1.0953,1.0962,1.0961,1.0959,1.096,1.0952,1.0957,1.0953,1.0964,1.0971,1.0971,1.0974,1.0965,1.0994,1.0997,1.0999,1.1008,1.1012,1.0968,1.0968,1.0968,1.0968,0,1.0987,1.0992,1.1,1.1,1.1002,1.101,1.1001,1.1005,1.0998,1.0993,1.1002,1.0997,1.0998,1.1,1.0993,1.1011,1.1006,1.0996,1.0981,1.1005,1.1013,1.1017,1.097,1.097,1.0969,1.0969,0,0,1.1021,1.1017,1.102,1.1021,1.1018,1.1022,1.103,1.1032,1.1035,1.1034,1.1041,1.1046,1.1037,1.1037,1.1029,1.1036,1.1058,1.1025,1.1025,1.1032,1.1078,1.1086,1.109,1.1052,1.1052,1.1053,1.1079,0,1.1044,1.1058,1.105,1.1065,1.107,1.1058,1.1066,1.1065,1.1061,1.1065,1.1061,1.1064,1.1053,1.1053,1.1059,1.1054,1.1067,1.1052,1.1057,1.1058,1.1058,1.1094,1.1101,1.1125,1.1082,1.1083,1.1083,0,1.1071,1.1074,1.1089,1.1087,1.1089,1.1096,1.1098,1.1102,1.1101,1.1098,1.1099,1.1091,1.1099,1.1085,1.1096,1.1086,1.1088,1.1086,1.1087,1.1086,1.1071,1.1094,1.1133,1.1137,1.1088,1.1087,1.1087,0,1.1095,1.1102,1.1112,1.1113,1.1111,1.1116,1.1115,1.1114,1.1116,1.1118,1.112,1.1123,1.1124,1.1126,1.1119,1.111,1.1131,1.1116,1.1128,1.1129,1.1132,1.1132,1.1172,1.1135,1.1135,1.1135,1.1135,0,1.112,1.113,1.1123,1.1129,1.1141,1.1133,1.1144,1.1142,1.1142,1.1148,1.1138,1.1143,1.1134,1.1139,1.1133,1.1144,1.1144,1.1142,1.114,1.1142,1.1143,1.1142,1.114,1.1136,1.1135,1.1135,1.1135,0,1.1148,1.1143,1.1154,1.1152,1.1152,1.116,1.1159,1.1165,1.1161,1.1169,1.1171,1.1165,1.1171,1.1164,1.1168,1.1165,1.1179,1.1175,1.1179,1.1178,1.119,1.1189,1.1231,1.1236,1.1196,1.1197,1.1197,0,1.1164,1.1171,1.1171,1.1175,1.1175,1.1181,1.1184,1.1178,1.1181,1.1182,1.1188,1.1193,1.1197,1.1206,1.1202,1.1206,1.1202,1.1216,1.1202,1.1205,1.1202,1.1201,1.1202,1.1219,1.1219,1.122,1.122,0,1.1193,1.1191,1.1196,1.1201,1.1205,1.1208,1.121,1.1214,1.1207,1.1212,1.1218,1.1221,1.1227,1.1232,1.1235,1.1234,1.1226,1.1225,1.1228,1.123,1.1232,1.1231,1.1187,1.1223,1.1223,1.1223,1.1223,1.1222,1.1215,1.1222,1.1223,1.1229,1.1231,1.1234,1.124,1.1238,1.1244,1.1249,1.1245,1.1252,1.1253,1.1257,1.1257,1.1263,1.1257,1.1261,1.1262,1.1263,1.1265,1.1232,1.1264,1.1264,1.1264,1.1264,1.1264,0,1.1243,1.1244,1.125,1.1255,1.126,1.1254,1.1257,1.1261,1.1269,1.1271,1.1275,1.1283,1.1289,1.1287,1.1292,1.1297,1.1293,1.1298,1.1297,1.1297,1.127,1.1267,1.1301,1.1301,1.1301,1.1301,1.1301,1.1301,1.1259,1.127,1.1269,1.1282,1.1282,1.1291,1.1293,1.1296,1.1298,1.1308,1.1313,1.1312,1.1312,1.1318,1.1323,1.1322,1.1324,1.1331,1.1329,1.1303,1.1299,1.1296,1.1293,1.1331,1.1331,1.1355,1.1355,1.1356]},{"header":{"parameterUnit":"m.s-1","parameterCategory":1,"la1":30.2991,"la2":30.254,"lo1":-89.0895,"lo2":-89.0444,"dy":0.0017,"dx":0.0017,"nx":28,"ny":28,"refTime":"2026-02-05T03:00:00:Z","depth":0,"parameterNumber":3,"parameterNumberName":"V-component_of_WINDS"},"data":[0,0,0,0,0,0,0,0,0,0,0,0,0,0,0,0,0,0,0,0,0,0,0,0,0,0,0,0,0,0,0,0,0,0,0,0,0,0,0,0,0,0,0,0,0,0,0,0,0,0,0,0,0,0,0,0,0,0,-5.8157,-5.8158,0,-5.8276,-5.8277,-5.8278,-5.8269,-5.8268,-5.8266,-5.8264,-5.8381,-5.8385,-5.839,0,0,0,0,0,0,0,0,0,0,0,0,0,-5.7919,-5.7923,-5.8156,-5.8158,-5.8159,-5.8276,-5.8277,-5.8279,-5.827,-5.8267,-5.8265,-5.8263,-5.8379,-5.8385,-5.839,0,0,0,0,0,0,0,0,0,0,0,0,0,-5.8028,-5.7924,-5.8156,-5.8169,-5.8171,-5.8275,-5.8277,-5.8279,-5.827,-5.8267,-5.8265,-5.8262,-5.8377,-5.8384,-5.8391,-5.8488,0,0,-5.8413,-5.8416,0,0,0,0,0,0,0,0,-5.8022,-5.8037,-5.8166,-5.8168,-5.8171,-5.8255,-5.8236,-5.8349,-5.8271,-5.8232,-5.8264,-5.8261,-5.8341,-5.8351,-5.8379,-5.8494,-5.8499,-5.8414,-5.8418,-5.8421,-5.8423,0,0,0,0,0,0,0,-5.8014,-5.8032,-5.8203,-5.8167,-5.8171,-5.8168,-5.8181,-5.8257,-5.83,-5.8236,-5.8235,-5.825,-5.8342,-5.8372,-5.8381,-5.8501,-5.8413,-5.842,-5.8424,-5.8427,-5.8706,-5.8709,0,0,0,0,0,0,-5.8004,-5.8025,-5.82,-5.8207,-5.8089,-5.8175,-5.8189,-5.8231,-5.8299,-5.8307,-5.8252,-5.8249,-5.8361,-5.8373,-5.8385,-5.8507,-5.8421,-5.8428,-5.8432,-5.8703,-5.8706,-5.871,0,0,0,0,0,0,-5.7999,-5.802,-5.8195,-5.8116,-5.8138,-5.8182,-5.8229,-5.8234,-5.8265,-5.8311,-5.8318,-5.8275,-5.8359,-5.8375,-5.8464,-5.851,-5.8431,-5.8437,-5.8699,-5.8704,-5.8708,-5.8748,0,0,0,0,0,0,-5.7992,-5.8018,-5.8056,-5.8117,-5.8143,-5.8272,-5.8232,-5.8239,-5.8278,-5.8275,-5.8335,-5.8342,-5.8358,-5.8454,-5.8471,-5.8519,-5.8443,-5.8695,-5.8701,-5.8707,-5.8743,-5.8753,-5.8762,0,0,0,0,0,-5.7984,-5.806,-5.8058,-5.8079,-5.8191,-5.8275,-5.8289,-5.8308,-5.8281,-5.832,-5.835,-5.8341,-5.8503,-5.8463,-5.8483,-5.8533,-5.8692,-5.8699,-5.8706,-5.8738,-5.8751,-5.8762,0,0,0,0,0,0,-5.8,-5.8068,-5.8066,-5.8165,-5.8215,-5.8273,-5.8322,-5.832,-5.8377,-5.8372,-5.8391,-5.8405,-5.8495,-5.8522,-5.8477,-5.8633,-5.8594,-5.8605,-5.8611,-5.8624,-5.8634,-5.8625,-5.8449,0,0,0,0,0,-5.8015,-5.8079,-5.8135,-5.8216,-5.8242,-5.8278,-5.8315,-5.8326,-5.8377,-5.8397,-5.8434,-5.8484,-5.8546,-5.8586,-5.8646,-5.8747,-5.8761,-5.8791,-5.8801,-5.8809,-5.8819,-5.8877,-5.8892,-5.8733,-5.8733,-5.8733,0,0,-5.8046,-5.8092,-5.813,-5.8221,-5.8261,-5.8327,-5.8295,-5.8365,-5.8414,-5.8407,-5.8495,-5.8524,-5.858,-5.8677,-5.8721,-5.8702,-5.8866,-5.8818,-5.8824,-5.8829,-5.8886,-5.8901,-5.8915,-5.8738,-5.8737,-5.8736,0,0,-5.8138,-5.8178,-5.8252,-5.8294,-5.8356,-5.838,-5.8398,-5.8459,-5.8479,-5.8568,-5.8565,-5.8623,-5.8729,-5.8771,-5.8806,-5.8918,-5.8912,-5.8937,-5.8989,-5.9046,-5.9058,-5.9069,-5.9112,-5.9126,-5.8946,-5.8946,-5.8946,0,-5.8168,-5.8269,-5.829,-5.8362,-5.8403,-5.8403,-5.8479,-5.8518,-5.8595,-5.8623,-5.8602,-5.8739,-5.8776,-5.8884,-5.8912,-5.8939,-5.8961,-5.893,-5.9055,-5.9066,-5.9077,-5.9118,-5.9133,-5.8949,-5.8949,-5.8948,-5.8948,0,-5.8305,-5.8375,-5.8427,-5.8506,-5.8552,-5.8625,-5.8658,-5.8702,-5.871,-5.8736,-5.8828,-5.8874,-5.8945,-5.8971,-5.8977,-5.9081,-5.9068,-5.9051,-5.9012,-5.9095,-5.9133,-5.9149,-5.8953,-5.8952,-5.8951,-5.895,0,0,-5.8406,-5.85,-5.8519,-5.8556,-5.8627,-5.8681,-5.8755,-5.8827,-5.8866,-5.892,-5.8984,-5.9076,-5.9062,-5.9102,-5.9113,-5.9163,-5.9253,-5.914,-5.9142,-5.9161,-5.9373,-5.9386,-5.9404,-5.925,-5.9252,-5.9255,-5.9369,0,-5.8507,-5.864,-5.8664,-5.878,-5.8847,-5.885,-5.8915,-5.8966,-5.8993,-5.9053,-5.9082,-5.9149,-5.9124,-5.9149,-5.9199,-5.9231,-5.9296,-5.9223,-5.9309,-5.9312,-5.9296,-5.9423,-5.9437,-5.9542,-5.9384,-5.9386,-5.9388,0,-5.864,-5.8702,-5.8827,-5.8893,-5.8921,-5.8979,-5.905,-5.9106,-5.9164,-5.9181,-5.9229,-5.9235,-5.9313,-5.9272,-5.938,-5.933,-5.9367,-5.9389,-5.9393,-5.9402,-5.9355,-5.9437,-5.9576,-5.9592,-5.9412,-5.941,-5.9408,0,-5.8705,-5.8819,-5.8909,-5.8941,-5.9019,-5.9061,-5.9095,-5.9151,-5.9194,-5.9255,-5.9283,-5.9351,-5.9389,-5.9441,-5.9467,-5.9434,-5.9574,-5.9534,-5.9591,-5.9591,-5.962,-5.9618,-5.9768,-5.9642,-5.9642,-5.9641,-5.9641,0,-5.8814,-5.8891,-5.894,-5.8996,-5.9082,-5.9109,-5.9193,-5.9226,-5.9277,-5.9339,-5.9345,-5.9403,-5.9433,-5.9495,-5.9515,-5.9604,-5.962,-5.9636,-5.9641,-5.9636,-5.9635,-5.9661,-5.9654,-5.9646,-5.9645,-5.9644,-5.9643,0,-5.89,-5.8937,-5.9036,-5.9104,-5.9123,-5.9184,-5.9242,-5.9296,-5.9325,-5.9404,-5.9424,-5.9469,-5.9544,-5.9575,-5.9665,-5.9678,-5.9781,-5.9779,-5.9762,-5.9764,-5.982,-5.9815,-5.9992,-6.0018,-5.9874,-5.9875,-5.9876,0,-5.8968,-5.9028,-5.9104,-5.9148,-5.9185,-5.9254,-5.9299,-5.9328,-5.9375,-5.9449,-5.9495,-5.957,-5.9632,-5.9751,-5.9791,-5.9861,-5.9862,-5.992,-5.9872,-5.9868,-5.9865,-5.9862,-5.9869,-5.9928,-5.993,-5.9931,-5.9932,0,-5.9086,-5.9102,-5.9168,-5.9243,-5.9298,-5.9357,-5.9414,-5.9449,-5.9487,-5.954,-5.9618,-5.9667,-5.9762,-5.9837,-5.991,-5.9945,-5.9946,-5.9947,-5.9964,-5.996,-5.9949,-5.9958,-5.9787,-5.9942,-5.9941,-5.994,-5.994,-5.9939,-5.9166,-5.9221,-5.9285,-5.9359,-5.9407,-5.9462,-5.9518,-5.9556,-5.9622,-5.9703,-5.9716,-5.98,-5.986,-5.9959,-5.9997,-6.0063,-6.0049,-6.0073,-6.0079,-6.0085,-6.009,-5.9939,-6.0076,-6.0076,-6.0076,-6.0076,-6.0076,0,-5.9286,-5.9328,-5.9397,-5.948,-5.9539,-5.9537,-5.9602,-5.9652,-5.9727,-5.9783,-5.9846,-5.9937,-6.0012,-6.006,-6.0135,-6.0178,-6.0181,-6.0197,-6.0195,-6.0203,-6.0098,-6.0077,-6.0194,-6.0194,-6.0194,-6.0194,-6.0194,-6.0194,-5.9355,-5.9449,-5.9473,-5.9591,-5.9633,-5.9717,-5.9755,-5.9806,-5.9852,-5.9955,-6.0018,-6.005,-6.0104,-6.0184,-6.0253,-6.0265,-6.0293,-6.0311,-6.0322,-6.0222,-6.021,-6.0198,-6.0179,-6.0316,-6.0316,-6.0422,-6.0423,-6.0424]}]]